Location: Peebles
(55.6412°N, 3.1714°W)
Time: 05:15:26
(UTC+00:00)

Resurs 1-3 - Visible Passes

Search period start: 27 January 2022 00:00
Search period end: 06 February 2022 00:00
Orbit: 630 x 631 km, 97.8° (Epoch: 26 January)

Date Brightness Start Highest point End Pass type
(mag) Time Alt. Az. Time Alt. Az. Time Alt. Az.
27 Jan 5.2 19:21:08 23° NNE 19:21:08 23° NNE 19:22:59 10° N visible
27 Jan 6.3 20:58:30 15° NW 20:58:30 15° NW 20:59:21 10° NNW visible
28 Jan 5.6 18:04:23 12° NE 18:04:23 12° NE 18:05:39 10° NNE visible
28 Jan 5.2 19:41:47 25° N 19:41:47 25° N 19:43:42 10° N visible
28 Jan 6.6 21:19:09 12° NW 21:19:09 12° NW 21:19:39 10° NW visible
29 Jan 5.3 18:25:03 16° NE 18:25:03 16° NE 18:26:57 10° NNE visible
29 Jan 5.3 20:02:25 26° NNW 20:02:25 26° NNW 20:04:21 10° NNW visible
30 Jan 5.1 18:45:41 20° NE 18:45:41 20° NE 18:47:57 10° N visible
30 Jan 5.5 20:23:04 25° NNW 20:23:04 25° NNW 20:24:56 10° NNW visible
31 Jan 4.9 19:06:20 25° NNE 19:06:20 25° NNE 19:08:49 10° N visible
31 Jan 5.8 20:43:42 22° NW 20:43:42 22° NW 20:45:25 10° NNW visible
01 Feb 4.7 19:26:58 30° NNE 19:26:58 30° NNE 19:29:34 10° N visible
01 Feb 6.1 21:04:21 18° NW 21:04:21 18° NW 21:05:49 10° NNW visible
02 Feb 5.4 18:10:14 13° NE 18:10:21 13° NE 18:12:29 10° NNE visible
02 Feb 4.6 19:47:36 35° N 19:47:36 35° N 19:50:15 10° N visible
02 Feb 6.5 21:24:59 15° NW 21:24:59 15° NW 21:26:02 10° NW visible
03 Feb 5.1 18:30:52 18° NE 18:30:52 18° NE 18:33:38 10° NNE visible
03 Feb 4.8 20:08:14 36° NNW 20:08:14 36° NNW 20:10:52 10° NNW visible
03 Feb 6.8 21:45:36 11° NW 21:45:36 11° NW 21:45:56 10° NW visible
04 Feb 4.8 18:51:30 24° NE 18:51:30 24° NE 18:54:34 10° N visible
04 Feb 5.1 20:28:52 33° NW 20:28:52 33° NW 20:31:26 10° NNW visible
05 Feb 4.5 19:12:07 32° NE 19:12:07 32° NE 19:15:24 10° N visible
05 Feb 5.5 20:49:30 27° NW 20:49:30 27° NW 20:51:54 10° NNW visible
